Home > Weather > Joinville > Past weeks

Flag for Brazil Weather for the Past 2 Weeks in Joinville, Santa Catarina, Brazil

Now
72 °F

Partly sunny.


Feels Like: 77 °F
Forecast: 60 / 77 °F
Wind: 6 mph from Northwest

Location: Curitiba Aeroporto

Current Time: May 5, 2016 at 3:30:05 PM

Latest Report: May 5, 2016 at 3:00 PM


Visibility: N/A

Pressure: 30.15 "Hg

Humidity: 53%

Dew Point: 54 °F

Location of JoinvilleLocation

Historic Weather in Joinville — Graph

°F

Joinville Temperature Yesterday

Maximum temperature yesterday: 72 °F (at 1:00 PM)
Minimum temperature yesterday: 55 °F (at 6:00 AM)
Average temperature yesterday: 62 °F

High & Low Weather Summary for the Past Weeks

 TemperatureHumidityPressure
High84 °F (Apr 21, 1:00 PM)100% (Apr 21, 6:00 AM)30.27 "Hg (Apr 21, 6:00 AM)
Low36 °F (May 1, 6:00 AM)33% (Apr 21, 1:00 PM)29.77 "Hg (Apr 26, 3:00 AM)
Average61 °F76%30.08 "Hg
* Reported Apr 20 2:00 PM — May 5 2:00 PM, Joinville, Weather by CustomWeather, © 2016

Note: Actual official high and low records may vary slightly from our data, if they occured in-between our weather recording intervals... More about our weather records

Advertising

Joinville Weather History for the Previous 24 Hours

Scroll right to see more
 ConditionsComfort  
Time TempWeatherWind HumidityBarometerVisibility
2:00 PM
Thu, May 5
70 °FPartly sunny.7 mph60%30.15 "HgN/A
1:00 PM70 °FPartly sunny.7 mph60%30.18 "HgN/A
12:00 PM68 °FPartly sunny.6 mph64%30.21 "HgN/A
11:00 AM66 °FPartly sunny.5 mph73%30.24 "HgN/A
10:00 AM64 °FPartly sunny.7 mph78%30.24 "HgN/A
9:00 AM63 °FPartly sunny.6 mph83%30.24 "HgN/A
8:00 AM59 °FPartly sunny.5 mph94%30.21 "Hg4 mi
7:00 AM59 °FFog.3 mph94%30.18 "Hg3 mi
6:00 AM59 °FPartly sunny.2 mph94%30.15 "Hg4 mi
5:00 AM59 °FPassing clouds.2 mph94%30.15 "Hg4 mi
4:00 AM57 °FPassing clouds.2 mph100%30.15 "Hg5 mi
3:00 AM57 °FPassing clouds.No wind100%30.15 "HgN/A
2:00 AM57 °FPassing clouds.5 mph100%30.15 "HgN/A
1:00 AM59 °FMostly cloudy.3 mph94%30.15 "HgN/A
12:00 AM59 °FMostly cloudy.5 mph94%30.18 "HgN/A
11:00 PM
Wed, May 4
61 °FMostly cloudy.6 mph88%30.18 "HgN/A
10:00 PM59 °FMostly cloudy.5 mph94%30.18 "Hg5 mi
9:00 PM59 °FFog.6 mph94%30.15 "Hg3 mi
8:00 PM57 °FPassing clouds.3 mph100%30.15 "HgN/A
7:00 PM59 °FPassing clouds.5 mph94%30.12 "HgN/A
6:00 PM63 °FPassing clouds.7 mph83%30.12 "HgN/A
5:00 PM64 °FPassing clouds.9 mph78%30.09 "HgN/A
4:00 PM70 °FPartly sunny.1 mph46%30.09 "HgN/A
3:00 PM72 °FPartly sunny.5 mph41%30.12 "HgN/A
Weather by CustomWeather, © 2016

See weather overviewHow to use our weather pages